Time,TemperatureF,DewpointF,PressureIn,WindDirection,WindDirectionDegrees,WindSpeedMPH,WindSpeedGustMPH,Humidity,HourlyPrecipIn,Conditions,Clouds,dailyrainin,SoftwareType,DateUTC
2013-06-24 00:01:00,73.0,65.7,30.03,SW,225,0.6,1.7,78,0.00,RA,,0.00,WeatherDisplay:10.37,2013-06-24 04:01:00,
2013-06-24 00:02:00,73.0,65.7,30.03,SW,225,1.3,2.3,78,0.00,RA,,0.00,WeatherDisplay:10.37,2013-06-24 04:02:00,
2013-06-24 00:03:00,73.4,65.7,30.03,SSW,202,2.5,5.8,77,0.00,RA,,0.00,WeatherDisplay:10.37,2013-06-24 04:03:00,
2013-06-24 00:04:00,73.4,65.7,30.03,NNW,338,1.9,3.5,77,0.00,RA,,0.00,WeatherDisplay:10.37,2013-06-24 04:04:00,
2013-06-24 00:09:00,73.8,65.8,30.03,South,180,1.2,2.3,76,0.00,RA,,0.00,WeatherDisplay:10.37,2013-06-24 04:09:00,
2013-06-24 00:14:00,73.8,65.8,30.03,West,270,1.6,2.3,76,0.00,BKN,,0.00,WeatherDisplay:10.37,2013-06-24 04:14:00,
2013-06-24 00:19:00,73.8,65.8,30.02,West,270,1.4,2.3,76,0.00,BKN,,0.00,WeatherDisplay:10.37,2013-06-24 04:19:00,
2013-06-24 00:24:00,74.1,66.0,30.02,SW,225,0.2,2.3,76,0.00,BKN,,0.00,WeatherDisplay:10.37,2013-06-24 04:24:00,
2013-06-24 00:29:00,73.9,65.9,30.03,West,270,0.0,0.0,76,0.00,BKN,,0.00,WeatherDisplay:10.37,2013-06-24 04:29:00,
2013-06-24 00:34:00,73.8,65.8,30.03,West,270,0.0,0.0,76,0.00,BKN,,0.00,WeatherDisplay:10.37,2013-06-24 04:34:00,
2013-06-24 00:39:00,73.8,65.8,30.03,SW,225,0.0,0.0,76,0.00,BKN,,0.00,WeatherDisplay:10.37,2013-06-24 04:39:00,
2013-06-24 00:44:00,73.6,65.6,30.03,SW,225,0.0,0.0,76,0.00,BKN,,0.00,WeatherDisplay:10.37,2013-06-24 04:44:00,
2013-06-24 00:49:00,73.6,65.6,30.03,SSW,202,0.7,1.1,76,0.00,BKN,,0.00,WeatherDisplay:10.37,2013-06-24 04:49:00,
2013-06-24 00:54:00,73.6,65.6,30.03,West,270,1.0,1.1,76,0.00,BKN,,0.00,WeatherDisplay:10.37,2013-06-24 04:54:00,
2013-06-24 00:59:00,73.4,65.4,30.03,SE,135,1.1,1.1,76,0.00,BKN,,0.00,WeatherDisplay:10.37,2013-06-24 04:59:00,
2013-06-24 01:04:00,73.4,65.7,30.03,West,270,0.0,0.0,77,0.00,BKN,,0.00,WeatherDisplay:10.37,2013-06-24 05:04:00,
2013-06-24 01:09:00,73.4,65.7,30.03,SW,225,0.3,1.1,77,0.00,BKN,,0.00,WeatherDisplay:10.37,2013-06-24 05:09:00,
2013-06-24 01:14:00,73.8,65.8,30.03,SSW,202,2.2,2.7,76,0.00,BKN,,0.00,WeatherDisplay:10.37,2013-06-24 05:14:00,
2013-06-24 01:19:00,73.9,65.9,30.02,WSW,248,2.2,2.3,76,0.00,BKN,,0.00,WeatherDisplay:10.37,2013-06-24 05:19:00,
2013-06-24 01:24:00,73.9,65.9,30.02,West,270,1.9,3.5,76,0.00,BKN,,0.00,WeatherDisplay:10.37,2013-06-24 05:24:00,
2013-06-24 01:29:00,73.8,65.8,30.03,South,180,0.0,0.0,76,0.00,BKN,,0.00,WeatherDisplay:10.37,2013-06-24 05:29:00,
2013-06-24 01:34:00,73.6,65.6,30.03,ESE,112,0.0,0.0,76,0.00,BKN,,0.00,WeatherDisplay:10.37,2013-06-24 05:34:00,
2013-06-24 01:39:00,73.4,65.7,30.03,WSW,248,0.5,1.1,77,0.00,BKN,,0.00,WeatherDisplay:10.37,2013-06-24 05:39:00,
2013-06-24 01:44:00,73.4,65.7,30.03,SW,225,0.8,1.1,77,0.00,BKN,,0.00,WeatherDisplay:10.37,2013-06-24 05:44:00,
2013-06-24 01:49:00,73.4,65.7,30.03,West,270,0.0,0.0,77,0.00,BKN,,0.00,WeatherDisplay:10.37,2013-06-24 05:49:00,
2013-06-24 01:54:00,73.2,65.9,30.02,NNW,338,0.0,0.0,78,0.00,BKN,,0.00,WeatherDisplay:10.37,2013-06-24 05:54:00,
2013-06-24 01:59:00,73.0,65.7,30.02,SSW,212,0.0,0.0,78,0.00,BKN,BKN,0.00,WeatherDisplay:10.37,2013-06-24 05:59:00,
2013-06-24 02:04:00,72.9,65.6,30.02,South,183,0.0,0.0,78,0.00,BKN,BKN,0.00,WeatherDisplay:10.37,2013-06-24 06:04:00,
2013-06-24 02:09:00,72.7,65.8,30.02,South,187,0.0,0.0,79,0.00,BKN,BKN,0.00,WeatherDisplay:10.37,2013-06-24 06:09:00,
2013-06-24 02:15:00,72.3,65.8,30.02,South,180,0.0,0.0,80,0.00,CLR,,0.00,WeatherDisplay:10.37,2013-06-24 06:15:00,
2013-06-24 02:20:00,72.1,65.6,30.02,SE,135,1.6,2.7,80,0.00,CLR,,0.00,WeatherDisplay:10.37,2013-06-24 06:20:00,
2013-06-24 02:25:00,72.3,65.8,30.02,SSE,158,1.8,2.3,80,0.00,CLR,,0.00,WeatherDisplay:10.37,2013-06-24 06:25:00,
2013-06-24 02:30:00,72.3,65.8,30.01,SE,135,0.5,2.3,80,0.00,CLR,,0.00,WeatherDisplay:10.37,2013-06-24 06:30:00,
2013-06-24 02:35:00,72.3,65.8,30.01,SSW,202,2.2,2.7,80,0.00,CLR,,0.00,WeatherDisplay:10.37,2013-06-24 06:35:00,
2013-06-24 02:40:00,72.7,65.8,30.01,SE,135,2.2,2.3,79,0.00,CLR,,0.00,WeatherDisplay:10.37,2013-06-24 06:40:00,
2013-06-24 02:45:00,72.7,65.8,30.01,ESE,112,0.9,3.2,79,0.00,CLR,,0.00,WeatherDisplay:10.37,2013-06-24 06:45:00,
2013-06-24 02:50:00,72.7,65.8,30.01,WSW,248,0.4,1.1,79,0.00,CLR,,0.00,WeatherDisplay:10.37,2013-06-24 06:50:00,
2013-06-24 02:55:00,72.7,65.8,30.01,West,270,1.1,2.3,79,0.00,CLR,,0.00,WeatherDisplay:10.37,2013-06-24 06:55:00,
2013-06-24 03:00:00,72.7,65.8,30.01,ESE,112,0.5,1.7,79,0.00,CLR,,0.00,WeatherDisplay:10.37,2013-06-24 07:00:00,
2013-06-24 03:05:00,72.7,65.8,30.01,SSW,202,1.5,2.2,79,0.00,CLR,,0.00,WeatherDisplay:10.37,2013-06-24 07:05:00,
2013-06-24 03:11:00,72.9,66.0,30.01,SW,225,0.9,2.3,79,0.00,SCT,,0.00,WeatherDisplay:10.37,2013-06-24 07:11:00,
2013-06-24 03:16:00,72.9,66.0,30.01,South,180,1.8,2.3,79,0.00,SCT,,0.00,WeatherDisplay:10.37,2013-06-24 07:16:00,
2013-06-24 03:21:00,73.0,66.1,30.01,WSW,248,1.7,2.3,79,0.00,SCT,,0.00,WeatherDisplay:10.37,2013-06-24 07:21:00,
2013-06-24 03:26:00,73.2,66.3,30.01,SSW,202,1.8,2.2,79,0.00,SCT,,0.00,WeatherDisplay:10.37,2013-06-24 07:26:00,
2013-06-24 03:31:00,73.4,66.5,30.01,SW,225,2.3,3.5,79,0.00,SCT,,0.00,WeatherDisplay:10.37,2013-06-24 07:31:00,
2013-06-24 03:36:00,73.4,66.5,30.01,WSW,248,2.3,3.2,79,0.00,SCT,,0.00,WeatherDisplay:10.37,2013-06-24 07:36:00,
2013-06-24 03:41:00,73.6,66.3,30.01,SSW,202,2.2,3.2,78,0.00,SCT,,0.00,WeatherDisplay:10.37,2013-06-24 07:41:00,
2013-06-24 03:46:00,73.9,66.6,30.01,West,270,2.2,3.5,78,0.00,SCT,,0.00,WeatherDisplay:10.37,2013-06-24 07:46:00,
2013-06-24 03:51:00,74.1,66.4,30.01,SW,225,3.1,3.5,77,0.00,SCT,,0.00,WeatherDisplay:10.37,2013-06-24 07:51:00,
2013-06-24 03:56:00,74.1,66.4,30.02,West,270,1.9,2.3,77,0.00,SCT,,0.00,WeatherDisplay:10.37,2013-06-24 07:56:00,
2013-06-24 04:02:00,74.3,66.6,30.02,SW,225,3.0,4.2,77,0.00,SCT,,0.00,WeatherDisplay:10.37,2013-06-24 08:02:00,
2013-06-24 04:07:00,74.5,66.8,30.02,West,270,2.3,2.3,77,0.00,SCT,,0.00,WeatherDisplay:10.37,2013-06-24 08:07:00,
2013-06-24 04:12:00,74.7,66.6,30.02,SSW,202,2.0,4.6,76,0.00,BKN,,0.00,WeatherDisplay:10.37,2013-06-24 08:12:00,
2013-06-24 04:17:00,74.8,66.7,30.02,SW,225,4.2,4.6,76,0.00,BKN,,0.00,WeatherDisplay:10.37,2013-06-24 08:17:00,
2013-06-24 04:23:00,75.2,66.7,30.02,SSW,202,2.5,4.6,75,0.00,BKN,,0.00,WeatherDisplay:10.37,2013-06-24 08:23:00,
2013-06-24 04:28:00,75.4,66.9,30.02,SW,225,3.4,6.9,75,0.00,BKN,,0.00,WeatherDisplay:10.37,2013-06-24 08:28:00,
2013-06-24 04:33:00,75.4,66.9,30.02,WNW,292,4.5,5.8,75,0.00,BKN,,0.00,WeatherDisplay:10.37,2013-06-24 08:33:00,
2013-06-24 04:38:00,75.6,66.7,30.02,West,270,3.5,5.8,74,0.00,BKN,,0.00,WeatherDisplay:10.37,2013-06-24 08:38:00,
2013-06-24 04:43:00,75.6,66.7,30.02,SW,225,4.1,5.8,74,0.00,BKN,,0.00,WeatherDisplay:10.37,2013-06-24 08:43:00,
2013-06-24 04:49:00,75.6,66.7,30.02,WNW,292,2.7,4.6,74,0.00,BKN,,0.00,WeatherDisplay:10.37,2013-06-24 08:49:00,
2013-06-24 04:54:00,75.4,66.5,30.02,SSW,202,3.0,4.6,74,0.00,BKN,,0.00,WeatherDisplay:10.37,2013-06-24 08:54:00,
2013-06-24 04:59:00,75.0,66.5,30.02,West,270,3.1,4.7,75,0.00,BKN,,0.00,WeatherDisplay:10.37,2013-06-24 08:59:00,
2013-06-24 05:04:00,75.0,66.5,30.02,West,270,2.3,4.6,75,0.00,BKN,,0.00,WeatherDisplay:10.37,2013-06-24 09:04:00,
2013-06-24 05:09:00,75.0,66.5,30.02,SW,225,3.4,3.7,75,0.00,BKN,,0.00,WeatherDisplay:10.37,2013-06-24 09:09:00,
2013-06-24 05:14:00,75.0,66.5,30.02,WSW,248,2.0,5.0,75,0.00,BKN,BKN,0.00,WeatherDisplay:10.37,2013-06-24 09:14:00,
2013-06-24 05:19:00,74.8,66.3,30.03,WSW,248,3.1,3.1,75,0.00,BKN,,0.00,WeatherDisplay:10.37,2013-06-24 09:19:00,
2013-06-24 05:24:00,74.8,66.7,30.03,SW,225,2.3,2.7,76,0.00,BKN,,0.00,WeatherDisplay:10.37,2013-06-24 09:24:00,
2013-06-24 05:30:00,74.7,66.6,30.03,WSW,248,2.1,3.5,76,0.00,BKN,,0.00,WeatherDisplay:10.37,2013-06-24 09:30:00,
2013-06-24 05:36:00,74.3,66.6,30.03,WSW,248,2.1,3.5,77,0.00,BKN,,0.00,WeatherDisplay:10.37,2013-06-24 09:36:00,
2013-06-24 05:41:00,74.1,66.4,30.03,SW,225,0.9,1.7,77,0.00,BKN,,0.00,WeatherDisplay:10.37,2013-06-24 09:41:00,
2013-06-24 05:47:00,73.9,66.2,30.03,SW,225,1.6,2.3,77,0.00,BKN,,0.00,WeatherDisplay:10.37,2013-06-24 09:47:00,
2013-06-24 05:52:00,73.8,66.5,30.03,WSW,248,2.4,2.7,78,0.00,BKN,,0.00,WeatherDisplay:10.37,2013-06-24 09:52:00,
2013-06-24 05:58:00,73.8,66.5,30.03,West,270,2.9,3.7,78,0.00,BKN,,0.00,WeatherDisplay:10.37,2013-06-24 09:58:00,
2013-06-24 06:03:00,73.8,66.5,30.03,WSW,248,2.8,5.8,78,0.00,BKN,,0.00,WeatherDisplay:10.37,2013-06-24 10:03:00,
2013-06-24 06:08:00,73.8,66.5,30.03,SW,225,3.6,3.7,78,0.00,BKN,,0.00,WeatherDisplay:10.37,2013-06-24 10:08:00,
2013-06-24 06:14:00,73.8,66.5,30.03,West,270,3.3,5.8,78,0.00,BKN,,0.00,WeatherDisplay:10.37,2013-06-24 10:14:00,
2013-06-24 06:19:00,73.9,66.6,30.04,SW,225,3.7,4.6,78,0.00,BKN,,0.00,WeatherDisplay:10.37,2013-06-24 10:19:00,
2013-06-24 06:24:00,74.1,66.8,30.04,WSW,248,3.7,3.7,78,0.00,BKN,,0.00,WeatherDisplay:10.37,2013-06-24 10:24:00,
2013-06-24 06:29:00,74.5,66.8,30.04,West,270,6.0,10.4,77,0.00,BKN,,0.00,WeatherDisplay:10.37,2013-06-24 10:29:00,
2013-06-24 06:34:00,74.7,67.0,30.04,SE,135,4.1,8.1,77,0.00,BKN,,0.00,WeatherDisplay:10.37,2013-06-24 10:34:00,
2013-06-24 06:39:00,74.8,67.1,30.04,West,270,9.3,9.9,77,0.00,BKN,,0.00,WeatherDisplay:10.37,2013-06-24 10:39:00,
2013-06-24 06:44:00,75.0,66.9,30.04,NW,315,9.7,11.5,76,0.00,BKN,,0.00,WeatherDisplay:10.37,2013-06-24 10:44:00,
2013-06-24 06:49:00,75.0,66.5,30.04,WSW,248,7.0,13.0,75,0.00,BKN,BKN,0.00,WeatherDisplay:10.37,2013-06-24 10:49:00,
2013-06-24 06:55:00,75.2,66.7,30.04,South,180,6.8,8.1,75,0.00,BKN,,0.00,WeatherDisplay:10.37,2013-06-24 10:55:00,
2013-06-24 07:00:00,75.2,66.7,30.04,West,270,8.1,10.4,75,0.00,BKN,,0.00,WeatherDisplay:10.37,2013-06-24 11:00:00,
2013-06-24 07:05:00,75.2,66.7,30.04,SW,225,5.9,10.4,75,0.00,BKN,,0.00,WeatherDisplay:10.37,2013-06-24 11:05:00,
2013-06-24 07:10:00,75.6,66.7,30.04,South,180,5.7,11.5,74,0.00,BKN,,0.00,WeatherDisplay:10.37,2013-06-24 11:10:00,
2013-06-24 07:15:00,75.6,66.7,30.04,WSW,248,8.2,9.2,74,0.00,SCT,,0.00,WeatherDisplay:10.37,2013-06-24 11:15:00,
2013-06-24 07:20:00,75.6,66.7,30.05,WSW,248,5.9,8.1,74,0.00,SCT,,0.00,WeatherDisplay:10.37,2013-06-24 11:20:00,
2013-06-24 07:25:00,75.6,66.7,30.05,SW,225,7.8,10.4,74,0.00,SCT,,0.00,WeatherDisplay:10.37,2013-06-24 11:25:00,
2013-06-24 07:30:00,75.9,66.6,30.05,West,270,6.5,6.9,73,0.00,SCT,,0.00,WeatherDisplay:10.37,2013-06-24 11:30:00,
2013-06-24 07:35:00,75.9,66.6,30.05,WSW,248,5.3,6.9,73,0.00,SCT,,0.00,WeatherDisplay:10.37,2013-06-24 11:35:00,
2013-06-24 07:40:00,76.1,66.8,30.05,West,270,8.3,8.3,73,0.00,SCT,,0.00,WeatherDisplay:10.37,2013-06-24 11:40:00,
2013-06-24 07:45:00,75.9,66.6,30.05,West,270,5.1,8.1,73,0.00,SCT,,0.00,WeatherDisplay:10.37,2013-06-24 11:45:00,
2013-06-24 07:50:00,75.9,66.2,30.05,WSW,248,6.3,7.3,72,0.00,SCT,,0.00,WeatherDisplay:10.37,2013-06-24 11:50:00,
2013-06-24 07:55:00,76.1,66.4,30.05,SW,225,6.7,8.1,72,0.00,SCT,,0.00,WeatherDisplay:10.37,2013-06-24 11:55:00,
2013-06-24 08:00:00,76.8,66.7,30.05,SSE,158,3.6,9.2,71,0.00,SCT,,0.00,WeatherDisplay:10.37,2013-06-24 12:00:00,
2013-06-24 08:06:00,77.7,67.1,30.05,North,360,5.1,6.9,70,0.00,SCT,,0.00,WeatherDisplay:10.37,2013-06-24 12:06:00,
2013-06-24 08:12:00,77.7,66.7,30.05,West,270,5.7,10.4,69,0.00,SCT,,0.00,WeatherDisplay:10.37,2013-06-24 12:12:00,
2013-06-24 08:17:00,77.7,67.1,30.04,WSW,248,6.2,6.9,70,0.00,SCT,,0.00,WeatherDisplay:10.37,2013-06-24 12:17:00,
2013-06-24 08:22:00,78.1,67.1,30.04,WSW,248,6.3,7.8,69,0.00,SCT,,0.00,WeatherDisplay:10.37,2013-06-24 12:22:00,
2013-06-24 08:27:00,78.1,67.1,30.04,SW,225,9.1,11.5,69,0.00,SCT,,0.00,WeatherDisplay:10.37,2013-06-24 12:27:00,
2013-06-24 08:32:00,77.7,66.7,30.04,SE,135,6.3,8.1,69,0.00,SCT,,0.00,WeatherDisplay:10.37,2013-06-24 12:32:00,
2013-06-24 08:37:00,77.7,66.7,30.04,West,270,5.2,8.1,69,0.00,SCT,,0.00,WeatherDisplay:10.37,2013-06-24 12:37:00,
2013-06-24 08:42:00,78.6,67.6,30.04,SW,225,4.5,5.8,69,0.00,SCT,,0.00,WeatherDisplay:10.37,2013-06-24 12:42:00,
2013-06-24 08:47:00,78.4,67.0,30.04,NW,315,4.2,8.1,68,0.00,SCT,,0.00,WeatherDisplay:10.37,2013-06-24 12:47:00,
2013-06-24 08:53:00,78.4,67.4,30.05,SW,225,6.4,9.2,69,0.00,SCT,,0.00,WeatherDisplay:10.37,2013-06-24 12:53:00,
2013-06-24 08:58:00,78.1,67.1,30.05,West,270,5.0,6.3,69,0.00,SCT,,0.00,WeatherDisplay:10.37,2013-06-24 12:58:00,
2013-06-24 09:03:00,77.5,66.5,30.05,West,270,6.8,8.1,69,0.00,BKN,,0.00,WeatherDisplay:10.37,2013-06-24 13:03:00,
2013-06-24 09:09:00,77.7,66.7,30.04,SSW,202,6.0,8.3,69,0.00,BKN,,0.00,WeatherDisplay:10.37,2013-06-24 13:09:00,
2013-06-24 09:14:00,77.5,66.5,30.04,West,270,6.5,8.1,69,0.00,BKN,,0.00,WeatherDisplay:10.37,2013-06-24 13:14:00,
2013-06-24 09:19:00,77.4,66.8,30.05,WSW,248,6.5,8.1,70,0.00,BKN,,0.00,WeatherDisplay:10.37,2013-06-24 13:19:00,
2013-06-24 09:24:00,77.5,66.5,30.05,SW,225,8.0,10.4,69,0.00,BKN,,0.00,WeatherDisplay:10.37,2013-06-24 13:24:00,
2013-06-24 09:29:00,77.5,66.5,30.05,West,270,6.9,8.8,69,0.00,BKN,,0.00,WeatherDisplay:10.37,2013-06-24 13:29:00,
2013-06-24 09:34:00,77.5,66.5,30.05,West,270,7.5,9.2,69,0.00,BKN,,0.00,WeatherDisplay:10.37,2013-06-24 13:34:00,
2013-06-24 09:39:00,77.5,66.5,30.05,West,263,6.0,9.0,69,0.00,BKN,BKN,0.00,WeatherDisplay:10.37,2013-06-24 13:39:00,
2013-06-24 09:44:00,78.4,66.5,30.05,WSW,254,7.0,11.0,67,0.00,BKN,BKN,0.00,WeatherDisplay:10.37,2013-06-24 13:44:00,
2013-06-24 09:50:00,78.8,66.5,30.05,West,270,7.3,7.3,66,0.00,BKN,,0.00,WeatherDisplay:10.37,2013-06-24 13:50:00,
2013-06-24 09:56:00,80.2,66.9,30.05,SSW,202,6.6,9.2,64,0.00,BKN,,0.00,WeatherDisplay:10.37,2013-06-24 13:56:00,
2013-06-24 10:01:00,82.2,67.4,30.05,SW,225,4.5,6.3,61,0.00,SCT,,0.00,WeatherDisplay:10.37,2013-06-24 14:01:00,
2013-06-24 10:06:00,82.8,67.5,30.04,WSW,248,5.8,9.2,60,0.00,SCT,,0.00,WeatherDisplay:10.37,2013-06-24 14:06:00,
2013-06-24 10:11:00,83.1,67.3,30.04,SSW,202,6.8,10.9,59,0.00,SCT,,0.00,WeatherDisplay:10.37,2013-06-24 14:11:00,
2013-06-24 10:16:00,83.5,67.2,30.04,South,180,7.1,9.2,58,0.00,SCT,,0.00,WeatherDisplay:10.37,2013-06-24 14:16:00,
2013-06-24 10:22:00,84.4,68.0,30.04,West,270,3.8,6.9,58,0.00,SCT,,0.00,WeatherDisplay:10.37,2013-06-24 14:22:00,
2013-06-24 10:27:00,82.8,67.5,30.04,West,270,8.0,9.2,60,0.00,SCT,,0.00,WeatherDisplay:10.37,2013-06-24 14:27:00,
2013-06-24 10:32:00,83.3,67.5,30.04,WSW,248,5.5,8.1,59,0.00,SCT,,0.00,WeatherDisplay:10.37,2013-06-24 14:32:00,
2013-06-24 10:37:00,82.8,67.0,30.04,WSW,248,9.6,10.9,59,0.00,SCT,,0.00,WeatherDisplay:10.37,2013-06-24 14:37:00,
2013-06-24 10:42:00,81.9,67.1,30.04,SW,225,7.8,9.4,61,0.00,SCT,,0.00,WeatherDisplay:10.37,2013-06-24 14:42:00,
2013-06-24 10:47:00,83.1,68.3,30.04,WSW,248,7.3,8.1,61,0.00,SCT,,0.00,WeatherDisplay:10.37,2013-06-24 14:47:00,
2013-06-24 10:52:00,82.9,67.6,30.04,SSW,202,7.8,11.5,60,0.00,SCT,,0.00,WeatherDisplay:10.37,2013-06-24 14:52:00,
2013-06-24 10:58:00,82.0,67.7,30.05,SW,225,10.6,13.0,62,0.00,SCT,,0.00,WeatherDisplay:10.37,2013-06-24 14:58:00,
2013-06-24 11:03:00,81.9,67.6,30.05,West,270,7.8,8.1,62,0.00,BKN,,0.00,WeatherDisplay:10.37,2013-06-24 15:03:00,
2013-06-24 11:08:00,80.8,67.5,30.05,SW,225,7.1,11.5,64,0.00,BKN,,0.00,WeatherDisplay:10.37,2013-06-24 15:08:00,
2013-06-24 11:13:00,81.1,67.3,30.05,SW,225,8.5,13.0,63,0.00,BKN,,0.00,WeatherDisplay:10.37,2013-06-24 15:13:00,
2013-06-24 11:18:00,79.5,66.7,30.05,SW,225,9.7,12.7,65,0.00,BKN,,0.00,WeatherDisplay:10.37,2013-06-24 15:18:00,
2013-06-24 11:24:00,77.7,66.3,30.05,West,270,11.0,13.8,68,0.00,BKN,,0.00,WeatherDisplay:10.37,2013-06-24 15:24:00,
2013-06-24 11:29:00,77.5,66.5,30.05,SW,225,9.3,10.4,69,0.00,BKN,,0.00,WeatherDisplay:10.37,2013-06-24 15:29:00,
2013-06-24 11:34:00,78.5,66.6,30.05,WSW,240,12.0,15.0,67,0.00,BKN,BKN,0.00,WeatherDisplay:10.37,2013-06-24 15:34:00,
2013-06-24 11:39:00,79.3,67.0,30.05,NW,315,10.7,10.7,66,0.00,BKN,,0.00,WeatherDisplay:10.37,2013-06-24 15:39:00,
2013-06-24 11:44:00,79.5,67.6,30.06,West,270,7.9,8.1,67,0.00,BKN,,0.00,WeatherDisplay:10.37,2013-06-24 15:44:00,
2013-06-24 11:49:00,79.3,67.0,30.06,West,270,11.3,11.3,66,0.00,BKN,,0.00,WeatherDisplay:10.37,2013-06-24 15:49:00,
2013-06-24 11:54:00,79.5,67.1,30.06,West,270,8.1,11.5,66,0.00,BKN,,0.00,WeatherDisplay:10.37,2013-06-24 15:54:00,
2013-06-24 11:59:00,80.1,67.7,30.06,West,270,6.7,11.5,66,0.00,BKN,,0.00,WeatherDisplay:10.37,2013-06-24 15:59:00,
2013-06-24 12:04:00,80.1,67.3,30.06,WSW,248,10.4,10.9,65,0.00,BKN,,0.00,WeatherDisplay:10.37,2013-06-24 16:04:00,
2013-06-24 12:09:00,79.7,67.3,30.06,West,259,10.0,12.0,66,0.00,BKN,BKN,0.00,WeatherDisplay:10.37,2013-06-24 16:09:00,
2013-06-24 12:14:00,79.7,67.3,30.06,WSW,237,8.0,8.0,66,0.00,BKN,BKN,0.00,WeatherDisplay:10.37,2013-06-24 16:14:00,
2013-06-24 12:19:00,79.5,67.6,30.06,WSW,248,10.2,12.7,67,0.00,BKN,,0.00,WeatherDisplay:10.37,2013-06-24 16:19:00,
2013-06-24 12:24:00,80.8,68.4,30.06,WSW,248,8.2,9.2,66,0.00,BKN,,0.00,WeatherDisplay:10.37,2013-06-24 16:24:00,
2013-06-24 12:29:00,81.3,68.4,30.05,SW,225,11.1,12.7,65,0.00,BKN,,0.00,WeatherDisplay:10.37,2013-06-24 16:29:00,
2013-06-24 12:34:00,81.3,68.4,30.05,SW,225,10.4,10.4,65,0.00,BKN,,0.00,WeatherDisplay:10.37,2013-06-24 16:34:00,
2013-06-24 12:39:00,81.1,68.6,30.05,WSW,241,7.0,11.0,66,0.00,BKN,BKN,0.00,WeatherDisplay:10.37,2013-06-24 16:39:00,
2013-06-24 12:44:00,81.3,68.0,30.05,WSW,254,8.0,13.0,64,0.00,BKN,BKN,0.00,WeatherDisplay:10.37,2013-06-24 16:44:00,
2013-06-24 12:49:00,82.4,69.0,30.05,WSW,255,6.0,9.0,64,0.00,BKN,BKN,0.00,WeatherDisplay:10.37,2013-06-24 16:49:00,
2013-06-24 12:54:00,82.6,69.2,30.06,WSW,243,6.0,15.0,64,0.00,BKN,BKN,0.00,WeatherDisplay:10.37,2013-06-24 16:54:00,
2013-06-24 12:59:00,82.8,68.5,30.06,SW,233,8.0,13.0,62,0.00,BKN,BKN,0.00,WeatherDisplay:10.37,2013-06-24 16:59:00,
2013-06-24 13:04:00,82.2,68.3,30.06,West,270,9.9,10.4,63,0.00,BKN,,0.00,WeatherDisplay:10.37,2013-06-24 17:04:00,
2013-06-24 13:09:00,81.1,68.2,30.06,West,263,9.0,14.0,65,0.00,BKN,BKN,0.00,WeatherDisplay:10.37,2013-06-24 17:09:00,
2013-06-24 13:14:00,81.0,68.5,30.06,West,268,10.0,16.0,66,0.00,BKN,BKN,0.00,WeatherDisplay:10.37,2013-06-24 17:14:00,
2013-06-24 13:19:00,80.4,68.0,30.06,SW,225,13.6,14.0,66,0.00,BKN,,0.00,WeatherDisplay:10.37,2013-06-24 17:19:00,
2013-06-24 13:24:00,80.2,68.2,30.06,WSW,247,9.0,15.0,67,0.00,BKN,BKN,0.00,WeatherDisplay:10.37,2013-06-24 17:24:00,
2013-06-24 13:29:00,81.1,68.6,30.06,WSW,243,7.0,12.0,66,0.00,BKN,BKN,0.00,WeatherDisplay:10.37,2013-06-24 17:29:00,
2013-06-24 13:34:00,81.1,68.7,30.06,WSW,241,10.0,15.0,66,0.00,BKN,BKN,0.00,WeatherDisplay:10.37,2013-06-24 17:34:00,
2013-06-24 13:39:00,81.0,68.6,30.06,SW,225,7.8,10.4,66,0.00,BKN,,0.00,WeatherDisplay:10.37,2013-06-24 17:39:00,
2013-06-24 13:44:00,81.0,68.6,30.06,West,270,9.7,9.9,66,0.00,BKN,,0.00,WeatherDisplay:10.37,2013-06-24 17:44:00,
2013-06-24 13:50:00,81.1,68.7,30.06,West,270,6.0,11.5,66,0.00,BKN,,0.00,WeatherDisplay:10.37,2013-06-24 17:50:00,
2013-06-24 13:55:00,81.5,68.6,30.05,West,270,7.1,11.4,65,0.00,BKN,,0.00,WeatherDisplay:10.37,2013-06-24 17:55:00,
2013-06-24 14:01:00,81.3,68.4,30.05,WNW,292,8.2,16.1,65,0.00,BKN,,0.00,WeatherDisplay:10.37,2013-06-24 18:01:00,
2013-06-24 14:06:00,81.9,69.0,30.05,WSW,248,7.4,9.4,65,0.00,BKN,,0.00,WeatherDisplay:10.37,2013-06-24 18:06:00,
2013-06-24 14:11:00,81.9,69.0,30.05,West,270,10.1,10.4,65,0.00,SCT,,0.00,WeatherDisplay:10.37,2013-06-24 18:11:00,
2013-06-24 14:16:00,81.3,68.0,30.05,West,270,9.1,16.1,64,0.00,SCT,,0.00,WeatherDisplay:10.37,2013-06-24 18:16:00,
2013-06-24 14:21:00,82.2,68.8,30.05,SSE,158,5.7,6.9,64,0.00,SCT,,0.00,WeatherDisplay:10.37,2013-06-24 18:21:00,
2013-06-24 14:26:00,82.6,68.3,30.05,West,270,6.1,10.4,62,0.00,SCT,,0.00,WeatherDisplay:10.37,2013-06-24 18:26:00,
2013-06-24 14:32:00,82.4,67.6,30.04,WSW,248,12.0,15.0,61,0.00,SCT,,0.00,WeatherDisplay:10.37,2013-06-24 18:32:00,
2013-06-24 14:37:00,82.2,67.4,30.04,WSW,248,10.4,12.7,61,0.00,SCT,,0.00,WeatherDisplay:10.37,2013-06-24 18:37:00,
2013-06-24 14:42:00,82.9,67.6,30.03,WSW,248,6.9,8.1,60,0.00,SCT,,0.00,WeatherDisplay:10.37,2013-06-24 18:42:00,
2013-06-24 14:48:00,83.5,68.2,30.03,SW,225,6.8,6.9,60,0.00,SCT,,0.00,WeatherDisplay:10.37,2013-06-24 18:48:00,
2013-06-24 14:53:00,83.1,67.3,30.01,WSW,248,9.6,12.7,59,0.00,SCT,,0.00,WeatherDisplay:10.37,2013-06-24 18:53:00,
2013-06-24 14:58:00,83.3,67.5,30.01,West,270,8.0,13.8,59,0.00,SCT,,0.00,WeatherDisplay:10.37,2013-06-24 18:58:00,
2013-06-24 15:03:00,83.1,66.8,30.01,WSW,248,8.6,12.7,58,0.00,SCT,,0.00,WeatherDisplay:10.37,2013-06-24 19:03:00,
2013-06-24 15:08:00,83.7,67.4,30.01,West,270,9.1,10.4,58,0.00,SCT,,0.00,WeatherDisplay:10.37,2013-06-24 19:08:00,
2013-06-24 15:13:00,83.1,67.3,30.01,NW,315,10.1,15.0,59,0.00,SCT,,0.00,WeatherDisplay:10.37,2013-06-24 19:13:00,
2013-06-24 15:18:00,83.1,67.3,30.01,West,270,10.2,16.1,59,0.00,SCT,,0.00,WeatherDisplay:10.37,2013-06-24 19:18:00,
2013-06-24 15:23:00,83.1,67.3,30.01,West,270,8.5,11.5,59,0.00,SCT,,0.00,WeatherDisplay:10.37,2013-06-24 19:23:00,
2013-06-24 15:29:00,84.0,67.6,30.01,SSW,202,9.3,11.5,58,0.00,SCT,,0.00,WeatherDisplay:10.37,2013-06-24 19:29:00,
2013-06-24 15:34:00,84.2,68.3,30.00,SW,225,8.1,9.4,59,0.00,SCT,,0.00,WeatherDisplay:10.37,2013-06-24 19:34:00,
2013-06-24 15:39:00,84.2,68.3,30.00,SW,225,10.0,10.9,59,0.00,SCT,,0.00,WeatherDisplay:10.37,2013-06-24 19:39:00,
2013-06-24 15:44:00,84.0,68.1,29.99,West,270,11.1,11.1,59,0.00,SCT,,0.00,WeatherDisplay:10.37,2013-06-24 19:44:00,
2013-06-24 15:49:00,83.3,68.0,29.99,SW,225,9.2,11.5,60,0.00,SCT,,0.00,WeatherDisplay:10.37,2013-06-24 19:49:00,
2013-06-24 15:54:00,83.3,68.4,29.99,South,180,6.8,11.5,61,0.00,SCT,,0.00,WeatherDisplay:10.37,2013-06-24 19:54:00,
2013-06-24 15:59:00,83.3,68.4,29.99,SW,225,8.6,10.4,61,0.00,SCT,,0.00,WeatherDisplay:10.37,2013-06-24 19:59:00,
2013-06-24 16:04:00,84.4,69.0,29.99,WSW,248,7.8,9.2,60,0.00,SCT,,0.00,WeatherDisplay:10.37,2013-06-24 20:04:00,
2013-06-24 16:09:00,83.8,68.4,29.99,West,270,8.6,9.9,60,0.00,SCT,,0.00,WeatherDisplay:10.37,2013-06-24 20:09:00,
2013-06-24 16:14:00,83.2,67.8,29.99,WSW,253,10.0,17.0,60,0.00,SCT,SCT,0.00,WeatherDisplay:10.37,2013-06-24 20:14:00,
2013-06-24 16:19:00,83.6,68.3,29.99,WSW,255,12.0,16.0,60,0.00,SCT,SCT,0.00,WeatherDisplay:10.37,2013-06-24 20:19:00,
2013-06-24 16:24:00,83.5,68.2,29.99,West,266,14.0,14.0,60,0.00,SCT,SCT,0.00,WeatherDisplay:10.37,2013-06-24 20:24:00,
2013-06-24 16:29:00,83.5,68.1,29.99,WSW,256,7.0,17.0,60,0.00,SCT,SCT,0.00,WeatherDisplay:10.37,2013-06-24 20:29:00,
2013-06-24 16:34:00,84.2,68.8,29.98,West,270,9.7,12.4,60,0.00,SCT,,0.00,WeatherDisplay:10.37,2013-06-24 20:34:00,
2013-06-24 16:39:00,83.9,68.5,29.98,WSW,252,8.0,13.0,60,0.00,SCT,SCT,0.00,WeatherDisplay:10.37,2013-06-24 20:39:00,
2013-06-24 16:44:00,83.8,68.4,29.98,WSW,249,8.0,8.0,60,0.00,SCT,SCT,0.00,WeatherDisplay:10.37,2013-06-24 20:44:00,
2013-06-24 16:49:00,83.8,68.4,29.98,WSW,248,9.0,12.0,60,0.00,SCT,SCT,0.00,WeatherDisplay:10.37,2013-06-24 20:49:00,
2013-06-24 16:54:00,83.8,68.9,29.98,WSW,243,9.0,12.0,61,0.00,SCT,SCT,0.00,WeatherDisplay:10.37,2013-06-24 20:54:00,
2013-06-24 16:59:00,83.8,68.4,29.98,West,270,8.0,9.2,60,0.00,SCT,,0.00,WeatherDisplay:10.37,2013-06-24 20:59:00,
2013-06-24 17:05:00,83.5,68.6,29.98,SW,225,7.4,10.4,61,0.00,SCT,,0.00,WeatherDisplay:10.37,2013-06-24 21:05:00,
2013-06-24 17:10:00,84.0,68.6,29.98,West,270,10.5,12.7,60,0.00,SCT,,0.00,WeatherDisplay:10.37,2013-06-24 21:10:00,
2013-06-24 17:15:00,83.8,68.4,29.98,SW,225,8.0,10.4,60,0.00,SCT,,0.00,WeatherDisplay:10.37,2013-06-24 21:15:00,
2013-06-24 17:20:00,83.7,68.8,29.97,SW,225,7.2,10.4,61,0.00,SCT,,0.00,WeatherDisplay:10.37,2013-06-24 21:20:00,
2013-06-24 17:25:00,83.1,68.3,29.97,West,270,9.3,9.4,61,0.00,SCT,,0.00,WeatherDisplay:10.37,2013-06-24 21:25:00,
2013-06-24 17:30:00,83.1,68.3,29.96,SSW,202,6.7,8.1,61,0.00,SCT,,0.00,WeatherDisplay:10.37,2013-06-24 21:30:00,
2013-06-24 17:35:00,83.7,68.3,29.96,West,270,5.5,8.3,60,0.00,SCT,,0.00,WeatherDisplay:10.37,2013-06-24 21:35:00,
2013-06-24 17:40:00,82.9,67.6,29.95,West,270,8.0,9.4,60,0.00,SCT,,0.00,WeatherDisplay:10.37,2013-06-24 21:40:00,
2013-06-24 17:45:00,83.8,68.4,29.95,West,270,4.8,7.3,60,0.00,SCT,,0.00,WeatherDisplay:10.37,2013-06-24 21:45:00,
2013-06-24 17:51:00,83.5,67.7,29.95,West,270,5.9,9.2,59,0.00,SCT,,0.00,WeatherDisplay:10.37,2013-06-24 21:51:00,
2013-06-24 17:56:00,83.3,67.5,29.95,West,270,7.3,7.3,59,0.00,SCT,,0.00,WeatherDisplay:10.37,2013-06-24 21:56:00,
2013-06-24 18:02:00,83.5,67.7,29.95,WSW,248,5.9,9.2,59,0.00,SCT,,0.00,WeatherDisplay:10.37,2013-06-24 22:02:00,
2013-06-24 18:07:00,84.2,67.8,29.95,SSW,202,6.9,8.3,58,0.00,SCT,,0.00,WeatherDisplay:10.37,2013-06-24 22:07:00,
2013-06-24 18:12:00,84.6,67.7,29.95,WSW,248,4.4,6.9,57,0.00,SCT,,0.00,WeatherDisplay:10.37,2013-06-24 22:12:00,
2013-06-24 18:17:00,84.9,68.0,29.95,West,270,6.8,6.9,57,0.00,SCT,,0.00,WeatherDisplay:10.37,2013-06-24 22:17:00,
2013-06-24 18:22:00,84.0,66.6,29.95,West,270,7.1,7.3,56,0.00,SCT,,0.00,WeatherDisplay:10.37,2013-06-24 22:22:00,
2013-06-24 18:28:00,84.0,66.6,29.95,South,180,6.3,9.2,56,0.00,SCT,,0.00,WeatherDisplay:10.37,2013-06-24 22:28:00,
2013-06-24 18:33:00,84.0,66.6,29.95,NNW,338,6.8,8.8,56,0.00,SCT,,0.00,WeatherDisplay:10.37,2013-06-24 22:33:00,
2013-06-24 18:38:00,84.2,66.8,29.95,South,180,4.8,5.8,56,0.00,SCT,,0.00,WeatherDisplay:10.37,2013-06-24 22:38:00,
2013-06-24 18:43:00,84.2,66.8,29.94,South,180,6.2,9.2,56,0.00,SCT,,0.00,WeatherDisplay:10.37,2013-06-24 22:43:00,
2013-06-24 18:48:00,83.7,66.3,29.94,West,270,6.2,9.2,56,0.00,SCT,,0.00,WeatherDisplay:10.37,2013-06-24 22:48:00,
2013-06-24 18:53:00,83.7,66.8,29.94,SSW,202,6.2,6.9,57,0.00,SCT,,0.00,WeatherDisplay:10.37,2013-06-24 22:53:00,
2013-06-24 18:59:00,83.8,66.4,29.94,WSW,248,5.1,7.3,56,0.00,SCT,,0.00,WeatherDisplay:10.37,2013-06-24 22:59:00,
2013-06-24 19:04:00,83.7,66.3,29.94,WSW,248,8.7,10.9,56,0.00,SCT,,0.00,WeatherDisplay:10.37,2013-06-24 23:04:00,
2013-06-24 19:09:00,82.9,65.1,29.95,WSW,248,8.6,13.8,55,0.00,SCT,,0.00,WeatherDisplay:10.37,2013-06-24 23:09:00,
2013-06-24 19:14:00,83.8,65.9,29.95,SW,225,5.1,5.8,55,0.00,SCT,,0.00,WeatherDisplay:10.37,2013-06-24 23:14:00,
2013-06-24 19:19:00,83.7,64.8,29.95,SW,225,6.5,8.1,53,0.00,SCT,,0.00,WeatherDisplay:10.37,2013-06-24 23:19:00,
2013-06-24 19:24:00,83.5,65.1,29.95,West,262,6.0,8.0,54,0.00,SCT,SCT,0.00,WeatherDisplay:10.37,2013-06-24 23:24:00,
2013-06-24 19:29:00,83.3,64.4,29.94,West,270,6.5,8.1,53,0.00,SCT,,0.00,WeatherDisplay:10.37,2013-06-24 23:29:00,
2013-06-24 19:34:00,82.9,64.0,29.94,SW,225,6.0,8.3,53,0.00,SCT,,0.00,WeatherDisplay:10.37,2013-06-24 23:34:00,
2013-06-24 19:39:00,82.9,64.0,29.94,SW,225,6.6,6.9,53,0.00,SCT,,0.00,WeatherDisplay:10.37,2013-06-24 23:39:00,
2013-06-24 19:44:00,82.6,63.7,29.95,SW,225,8.3,9.2,53,0.00,SCT,,0.00,WeatherDisplay:10.37,2013-06-24 23:44:00,
2013-06-24 19:49:00,82.4,63.5,29.95,WSW,248,6.1,9.2,53,0.00,SCT,,0.00,WeatherDisplay:10.37,2013-06-24 23:49:00,
2013-06-24 19:54:00,82.6,63.7,29.95,NNW,338,4.9,6.9,53,0.00,SCT,,0.00,WeatherDisplay:10.37,2013-06-24 23:54:00,
2013-06-24 19:59:00,82.2,63.4,29.95,SSW,202,5.2,5.8,53,0.00,SCT,,0.00,WeatherDisplay:10.37,2013-06-24 23:59:00,
2013-06-24 20:04:00,81.9,63.6,29.95,West,270,4.3,5.8,54,0.00,SCT,,0.00,WeatherDisplay:10.37,2013-06-25 00:04:00,
2013-06-24 20:09:00,81.7,63.4,29.95,WSW,244,6.0,8.0,54,0.00,SCT,SCT,0.00,WeatherDisplay:10.37,2013-06-25 00:09:00,
2013-06-24 20:14:00,81.5,63.3,29.95,WSW,237,3.0,7.0,54,0.00,SCT,SCT,0.00,WeatherDisplay:10.37,2013-06-25 00:14:00,
2013-06-24 20:19:00,81.0,63.3,29.95,SSW,202,5.9,8.1,55,0.00,SCT,,0.00,WeatherDisplay:10.37,2013-06-25 00:19:00,
2013-06-24 20:24:00,80.8,63.6,29.95,West,270,2.7,3.5,56,0.00,SCT,,0.00,WeatherDisplay:10.37,2013-06-25 00:24:00,
2013-06-24 20:29:00,80.4,63.7,29.95,WSW,257,5.0,6.0,57,0.00,SCT,SCT,0.00,WeatherDisplay:10.37,2013-06-25 00:29:00,
2013-06-24 20:34:00,79.9,63.3,29.95,WSW,252,3.0,6.0,57,0.00,SCT,SCT,0.00,WeatherDisplay:10.37,2013-06-25 00:34:00,
2013-06-24 20:39:00,79.7,63.6,29.95,WSW,248,5.0,9.2,58,0.00,SCT,,0.00,WeatherDisplay:10.37,2013-06-25 00:39:00,
2013-06-24 20:44:00,79.4,63.8,29.95,SW,233,3.0,6.0,59,0.00,SCT,SCT,0.00,WeatherDisplay:10.37,2013-06-25 00:44:00,
2013-06-24 20:49:00,79.0,63.4,29.95,WSW,240,3.0,6.0,59,0.00,SCT,SCT,0.00,WeatherDisplay:10.37,2013-06-25 00:49:00,
2013-06-24 20:54:00,78.8,63.7,29.95,WSW,248,3.6,5.8,60,0.00,SCT,,0.00,WeatherDisplay:10.37,2013-06-25 00:54:00,
2013-06-24 21:00:00,78.4,63.8,29.95,West,270,5.3,5.8,61,0.00,SCT,,0.00,WeatherDisplay:10.37,2013-06-25 01:00:00,
2013-06-24 21:05:00,78.1,64.0,29.95,West,270,2.7,4.6,62,0.00,SCT,,0.00,WeatherDisplay:10.37,2013-06-25 01:05:00,
2013-06-24 21:10:00,77.9,63.8,29.95,SW,225,4.0,4.7,62,0.00,SCT,,0.00,WeatherDisplay:10.37,2013-06-25 01:10:00,
2013-06-24 21:15:00,77.7,64.1,29.95,South,180,3.5,4.6,63,0.00,SCT,,0.00,WeatherDisplay:10.37,2013-06-25 01:15:00,
2013-06-24 21:20:00,77.5,63.9,29.95,WSW,248,3.4,4.6,63,0.00,SCT,,0.00,WeatherDisplay:10.37,2013-06-25 01:20:00,
2013-06-24 21:25:00,77.2,64.1,29.95,WNW,292,2.4,3.5,64,0.00,SCT,,0.00,WeatherDisplay:10.37,2013-06-25 01:25:00,
2013-06-24 21:30:00,77.0,63.9,29.95,South,180,2.7,3.5,64,0.00,SCT,,0.00,WeatherDisplay:10.37,2013-06-25 01:30:00,
2013-06-24 21:35:00,77.0,63.9,29.95,SW,225,4.2,4.2,64,0.00,SCT,,0.00,WeatherDisplay:10.37,2013-06-25 01:35:00,
2013-06-24 21:40:00,76.8,63.7,29.96,West,270,3.1,6.9,64,0.00,SCT,,0.00,WeatherDisplay:10.37,2013-06-25 01:40:00,
2013-06-24 21:45:00,76.8,63.7,29.96,NNE,22,4.3,4.7,64,0.00,SCT,,0.00,WeatherDisplay:10.37,2013-06-25 01:45:00,
2013-06-24 21:50:00,76.5,63.9,29.96,SE,135,3.3,4.6,65,0.00,SCT,,0.00,WeatherDisplay:10.37,2013-06-25 01:50:00,
2013-06-24 21:56:00,76.5,63.9,29.96,SW,225,3.3,4.6,65,0.00,SCT,,0.00,WeatherDisplay:10.37,2013-06-25 01:56:00,
2013-06-24 22:01:00,76.1,63.9,29.96,South,180,2.4,2.4,66,0.00,SCT,,0.00,WeatherDisplay:10.37,2013-06-25 02:01:00,
2013-06-24 22:06:00,75.9,63.7,29.96,South,180,2.0,2.3,66,0.00,SCT,,0.00,WeatherDisplay:10.37,2013-06-25 02:06:00,
2013-06-24 22:11:00,75.7,64.0,29.96,East,90,0.8,1.1,67,0.00,SCT,,0.00,WeatherDisplay:10.37,2013-06-25 02:11:00,
2013-06-24 22:16:00,75.2,63.9,29.96,WNW,292,1.5,2.3,68,0.00,SCT,,0.00,WeatherDisplay:10.37,2013-06-25 02:16:00,
2013-06-24 22:22:00,74.8,63.9,29.96,West,270,0.0,0.0,69,0.00,SCT,,0.00,WeatherDisplay:10.37,2013-06-25 02:22:00,
2013-06-24 22:27:00,74.5,63.7,29.96,NW,315,0.4,2.3,69,0.00,SCT,,0.00,WeatherDisplay:10.37,2013-06-25 02:27:00,
2013-06-24 22:32:00,74.3,63.9,29.96,SW,225,1.0,2.3,70,0.00,SCT,,0.00,WeatherDisplay:10.37,2013-06-25 02:32:00,
2013-06-24 22:37:00,73.8,63.4,29.96,West,270,0.2,1.1,70,0.00,SCT,,0.00,WeatherDisplay:10.37,2013-06-25 02:37:00,
2013-06-24 22:42:00,73.6,63.6,29.96,NE,45,0.3,0.0,71,0.00,SCT,,0.00,WeatherDisplay:10.37,2013-06-25 02:42:00,
2013-06-24 22:47:00,73.2,63.6,29.96,South,180,0.1,1.1,72,0.00,SCT,,0.00,WeatherDisplay:10.37,2013-06-25 02:47:00,
2013-06-24 22:52:00,72.9,63.7,29.96,NE,45,0.0,0.0,73,0.00,SCT,,0.00,WeatherDisplay:10.37,2013-06-25 02:52:00,
2013-06-24 22:58:00,72.5,63.7,29.97,SE,135,0.0,1.1,74,0.00,SCT,,0.00,WeatherDisplay:10.37,2013-06-25 02:58:00,
2013-06-24 23:03:00,72.3,63.9,29.97,SSW,202,0.1,1.1,75,0.00,SCT,,0.00,WeatherDisplay:10.37,2013-06-25 03:03:00,
2013-06-24 23:08:00,72.1,63.7,29.95,WSW,248,0.0,0.0,75,0.00,SCT,,0.00,WeatherDisplay:10.37,2013-06-25 03:08:00,
2013-06-24 23:14:00,72.0,64.0,29.95,South,180,0.2,1.1,76,0.00,SCT,,0.00,WeatherDisplay:10.37,2013-06-25 03:14:00,
2013-06-24 23:19:00,71.8,63.8,29.95,South,180,0.0,1.1,76,0.00,SCT,,0.00,WeatherDisplay:10.37,2013-06-25 03:19:00,
2013-06-24 23:24:00,71.6,63.6,29.95,West,270,0.3,1.1,76,0.00,SCT,,0.00,WeatherDisplay:10.37,2013-06-25 03:24:00,
2013-06-24 23:29:00,71.4,63.8,29.96,WSW,248,0.0,0.0,77,0.00,SCT,,0.00,WeatherDisplay:10.37,2013-06-25 03:29:00,
2013-06-24 23:35:00,71.2,63.6,29.96,SSE,158,0.8,1.1,77,0.00,SCT,,0.00,WeatherDisplay:10.37,2013-06-25 03:35:00,
2013-06-24 23:40:00,71.2,64.0,29.96,SW,225,0.0,1.1,78,0.00,SCT,,0.00,WeatherDisplay:10.37,2013-06-25 03:40:00,
2013-06-24 23:45:00,71.1,63.9,29.95,ESE,112,0.0,1.1,78,0.00,SCT,,0.00,WeatherDisplay:10.37,2013-06-25 03:45:00,
2013-06-24 23:50:00,71.1,64.3,29.95,SSE,158,0.0,1.1,79,0.00,SCT,,0.00,WeatherDisplay:10.37,2013-06-25 03:50:00,
2013-06-24 23:56:00,70.7,63.9,29.95,SSE,158,0.5,1.1,79,0.00,SCT,,0.00,WeatherDisplay:10.37,2013-06-25 03:56:00,